Regional Weather Roundup
Issued by NWS Columbia, SC

Home | Current Version | Previous Version | Text Only | Print | Product List | Glossary On
Versions: 1 2 3 4 5 6 7 8 9 10 11 12 13 14 15 16 17 18 19 20 21 22 23 24 25 26 27 28
000
ASUS42 KCAE 231610
RWRCAE
REGIONAL WEATHER ROUNDUP
NATIONAL WEATHER SERVICE COLUMBIA SC
1200 PM EDT THU OCT 23 2014

NOTE: "FAIR" INDICATES FEW OR NO CLOUDS BELOW 12,000 FEET WITH NO
SIGNIFICANT WEATHER AND/OR OBSTRUCTIONS TO VISIBILITY.

NOT ALL STATIONS ARE QUALITY CONTROLLED BY THE NATIONAL
WEATHER SERVICE. USE DATA WITH CAUTION...ESPECIALLY
DEWPOINT OBSERVATIONS.

SCZ001>056-GAZ040-063>065-077-231700-
...UPSTATE SOUTH CAROLINA...

CITY           SKY/WX    TMP DP  RH WIND       PRES   REMARKS
ANDERSON       SUNNY     60  42  51 S6        30.10F
LIBERTY        FAIR      62  41  44 MISG      30.09F
SPARTANBURG    FAIR      64  37  36 CALM      30.08F
CLEMSON        SUNNY     63  42  46 CALM      30.11F
GREENVILLE     SUNNY     63  38  39 VRB5      30.10F
GREENWOOD      SUNNY     63  40  42 VRB3      30.11F
GREER          SUNNY     61  38  42 VRB5      30.08F
ROCK HILL      SUNNY     63  42  46 N10       30.08F
LAURENS        FAIR      61  32  33 CALM      30.11F


...CENTRAL SOUTH CAROLINA...

CITY           SKY/WX    TMP DP  RH WIND       PRES   REMARKS
COLUMBIA APT   SUNNY     64  40  41 VRB7      30.09F
COLUMBIA OWENS SUNNY     62  40  44 NW3       30.10F
DARLINGTON     SUNNY     63  43  48 NW7       30.08S
FLORENCE       SUNNY     62  42  47 VRB6      30.06F
MCENTIRE ANGB  SUNNY     64  41  42 CALM      30.08F
ORANGEBURG     SUNNY     63  39  41 N8        30.09F
SUMTER SHAW    SUNNY     61  44  54 NW5       30.06F
NEWBERRY       FAIR      61  45  55 W5        30.12F
AIKEN          FAIR      63  43  48 CALM      30.13S
BARNWELL       FAIR      64  39  39 N3        30.10F
MANNING        FAIR      63  46  55 N3        30.08F
CAMDEN         FAIR      61  41  48 CALM      30.09F
LANCASTER      FAIR      61  39  44 NW8       30.08F
WINNSBORO      FAIR      63  43  48 NW7       30.08F


...EASTERN AND COASTAL SOUTH CAROLINA...

CITY           SKY/WX    TMP DP  RH WIND       PRES   REMARKS
MYRTLE BEACH   SUNNY     63  43  48 N9        30.06S
N MYRTLE BCH   SUNNY     63  44  50 NW7       30.04F
CONWAY         FAIR      63  45  51 W5        30.05F
MARION         FAIR      61  43  51 NW7       30.05F
HARTSVILLE     FAIR      63  18  17 NW3       30.07F
FLORENCE       SUNNY     62  42  47 VRB6      30.06F
DARLINGTON     SUNNY     63  43  48 NW7       30.08S
CHARLESTON APT SUNNY     65  44  46 N5        30.08F
MOUNT PLEASANT FAIR      63  46  55 NW5       30.07F
WALTERBORO     SUNNY     63  37  39 NE3       30.10F
BEAUFORT       SUNNY     64  45  49 VRB6      30.09F


...EASTERN GEORGIA...

CITY           SKY/WX    TMP DP  RH WIND       PRES   REMARKS
AUGUSTA BUSH F SUNNY     63  38  39 N5        30.11F
AUGUSTA DANIEL SUNNY     63  39  41 CALM      30.12F
THOMSON        SUNNY     62  47  56 CALM      30.16F
WASHINGTON     FAIR      63  46  55 CALM      30.12S
CLAXTON        FAIR      64  46  52 CALM      30.11F
SYLVANIA       SUNNY     68  48  49 CALM      30.12S
SAVANNAH       SUNNY     65  43  44 NW3       30.10F


...SOUTHERN NORTH CAROLINA...

CITY           SKY/WX    TMP DP  RH WIND       PRES   REMARKS
CHARLOTTE      SUNNY     62  38  40 N10G16    30.09F
MONROE         SUNNY     62  39  42 N13       30.07F
WADESBORO      SUNNY     62  39  41 N8        30.06F
ROCKINGHAM     SUNNY     60  43  53 W6        30.05F
RUTHERFORDTON  SUNNY     61  41  47 W6        30.10F
ASHEVILLE      SUNNY     55  38  52 NW17G26   30.13F

$$



USA.gov is the U.S. government's official web portal to all federal, state and local government web resources and services.